When you browse on this site, cookies collect data to enhance your experience and personalize the content and advertising you see.
Visit our Privacy Policy to learn more. By continuing to use the site, you agree to this use of cookies and data.
  • In Sweden
  • List of Countries
  • For 7 days
  • Water Temperature
  • Weather Map
  • Weather Widgets
  • user-avatar
    Login

    Hourly Weather Slubice

    Today, 29 March, Sunday

    Time Temperature Precipitation Wind Pressure Humidity
    00:00 +9°C° 0 mm 1 mps 753 mmHg 57%
    01:00 +8°C° 0 mm 1 mps 753 mmHg 58%
    02:00 +8°C° 0 mm 1 mps 753 mmHg 59%
    03:00 +8°C° 0 mm 1 mps 752 mmHg 59%
    04:00 +8°C° 0 mm 1 mps 752 mmHg 60%
    05:00 +7°C° 0 mm 2 mps 752 mmHg 62%
    06:00 +7°C° 0 mm 2 mps 752 mmHg 65%
    07:00 +7°C° 0 mm 3 mps 752 mmHg 67%
    08:00 +8°C° 0 mm 3 mps 752 mmHg 65%
    09:00 +8°C° 0 mm 4 mps 753 mmHg 63%
    10:00 +9°C° 0 mm 5 mps 753 mmHg 61%
    11:00 +8°C° 0 mm 5 mps 753 mmHg 64%
    12:00 +8°C° 0 mm 6 mps 753 mmHg 66%
    13:00 +8°C° 0 mm 7 mps 754 mmHg 68%
    14:00 +5°C° 0.1 mm 8 mps 754 mmHg 75%
    15:00 +2°C° 0.1 mm 8 mps 754 mmHg 82%
    16:00 0°C° 0.1 mm 9 mps 755 mmHg 89%
    17:00 -1°C° 0.1 mm 9 mps 755 mmHg 90%
    18:00 -1°C° 0.1 mm 9 mps 756 mmHg 90%
    19:00 -3°C° 0.1 mm 9 mps 757 mmHg 91%
    20:00 -2°C° 0.1 mm 8 mps 758 mmHg 84%
    21:00 -2°C° 0.1 mm 7 mps 758 mmHg 78%
    22:00 -2°C° 0.1 mm 7 mps 758 mmHg 71%
    23:00 -3°C° 0 mm 6 mps 759 mmHg 69%

    Tomorrow, 30 March, Monday

    Time Temperature Precipitation Wind Pressure Humidity
    00:00 -4°C° 0 mm 6 mps 759 mmHg 66%
    01:00 -5°C° 0 mm 5 mps 760 mmHg 64%
    02:00 -5°C° 0 mm 5 mps 760 mmHg 63%
    03:00 -6°C° 0 mm 5 mps 760 mmHg 63%
    04:00 -5°C° 0 mm 4 mps 760 mmHg 62%
    05:00 -5°C° 0 mm 5 mps 760 mmHg 58%
    06:00 -5°C° 0 mm 5 mps 760 mmHg 55%
    07:00 -4°C° 0 mm 6 mps 760 mmHg 51%
    08:00 -2°C° 0 mm 5 mps 760 mmHg 46%
    09:00 -1°C° 0 mm 5 mps 760 mmHg 40%
    10:00 0°C° 0 mm 5 mps 760 mmHg 35%
    11:00 +1°C° 0 mm 5 mps 760 mmHg 35%
    12:00 +1°C° 0 mm 5 mps 760 mmHg 34%
    13:00 +2°C° 0 mm 5 mps 760 mmHg 33%
    14:00 +2°C° 0 mm 5 mps 760 mmHg 37%
    15:00 +3°C° 0 mm 4 mps 760 mmHg 40%
    16:00 +3°C° 0 mm 4 mps 760 mmHg 43%
    17:00 +2°C° 0.1 mm 3 mps 760 mmHg 51%
    18:00 +1°C° 0.1 mm 3 mps 761 mmHg 59%
    19:00 -1°C° 0.1 mm 2 mps 761 mmHg 67%
    20:00 -1°C° 0 mm 2 mps 761 mmHg 68%
    21:00 -1°C° 0 mm 2 mps 762 mmHg 69%
    22:00 +1°C° 0 mm 1 mps 762 mmHg 70%
    23:00 0°C° 0 mm 1 mps 762 mmHg 70%

    Day after tomorrow, 31 March, Tuesday

    Time Temperature Precipitation Wind Pressure Humidity
    00:00 0°C° 0 mm 1 mps 762 mmHg 69%
    01:00 0°C° 0 mm 1 mps 762 mmHg 69%
    02:00 -2°C° 0 mm 2 mps 762 mmHg 73%
    03:00 -3°C° 0 mm 2 mps 763 mmHg 77%
    04:00 -3°C° 0 mm 2 mps 763 mmHg 81%
    05:00 -3°C° 0 mm 2 mps 763 mmHg 76%
    06:00 -2°C° 0 mm 3 mps 763 mmHg 71%
    07:00 -1°C° 0 mm 3 mps 764 mmHg 66%
    08:00 0°C° 0 mm 3 mps 764 mmHg 57%
    09:00 +1°C° 0 mm 3 mps 764 mmHg 49%
    10:00 +2°C° 0 mm 3 mps 764 mmHg 40%
    11:00 +4°C° 0 mm 2 mps 764 mmHg 39%
    12:00 +4°C° 0 mm 2 mps 764 mmHg 37%
    13:00 +5°C° 0 mm 2 mps 763 mmHg 36%
    14:00 +5°C° 0 mm 2 mps 763 mmHg 37%
    15:00 +4°C° 0 mm 2 mps 763 mmHg 37%
    16:00 +4°C° 0 mm 2 mps 762 mmHg 38%
    17:00 +3°C° 0 mm 2 mps 762 mmHg 43%
    18:00 +1°C° 0 mm 2 mps 762 mmHg 47%
    19:00 -1°C° 0 mm 2 mps 762 mmHg 52%
    20:00 0°C° 0 mm 1 mps 762 mmHg 52%
    21:00 0°C° 0 mm 1 mps 762 mmHg 52%
    22:00 0°C° 0 mm 1 mps 762 mmHg 52%
    23:00 0°C° 0 mm 1 mps 762 mmHg 53%

    1 April, Wednesday

    Time Temperature Precipitation Wind Pressure Humidity
    00:00 -2°C° 0 mm 2 mps 761 mmHg 53%
    01:00 -2°C° 0 mm 2 mps 761 mmHg 53%
    02:00 -2°C° 0 mm 2 mps 760 mmHg 55%
    03:00 -2°C° 0 mm 3 mps 760 mmHg 56%
    04:00 -2°C° 0 mm 3 mps 759 mmHg 57%
    05:00 -2°C° 0 mm 4 mps 759 mmHg 57%
    06:00 -2°C° 0 mm 4 mps 759 mmHg 56%
    07:00 -1°C° 0 mm 5 mps 758 mmHg 56%
    08:00 0°C° 0 mm 5 mps 758 mmHg 52%
    09:00 +2°C° 0 mm 6 mps 757 mmHg 47%
    10:00 +3°C° 0 mm 6 mps 757 mmHg 43%
    11:00 +4°C° 0 mm 6 mps 756 mmHg 45%
    12:00 +4°C° 0 mm 6 mps 756 mmHg 47%
    13:00 +5°C° 0 mm 7 mps 756 mmHg 48%
    14:00 +5°C° 0 mm 6 mps 755 mmHg 52%
    15:00 +5°C° 0 mm 6 mps 755 mmHg 55%
    16:00 +5°C° 0 mm 6 mps 755 mmHg 58%
    17:00 +5°C° 0 mm 5 mps 755 mmHg 66%
    18:00 +4°C° 0 mm 4 mps 755 mmHg 73%
    19:00 +2°C° 0 mm 3 mps 755 mmHg 81%
    20:00 +2°C° 0 mm 3 mps 755 mmHg 84%
    21:00 +2°C° 0 mm 3 mps 755 mmHg 86%
    22:00 +1°C° 0 mm 3 mps 755 mmHg 89%
    23:00 +1°C° 0.1 mm 3 mps 754 mmHg 90%

    2 April, Thursday

    Time Temperature Precipitation Wind Pressure Humidity
    00:00 +1°C° 0.1 mm 3 mps 754 mmHg 90%
    01:00 +1°C° 0.1 mm 3 mps 754 mmHg 90%
    02:00 0°C° 0 mm 4 mps 754 mmHg 90%
    03:00 0°C° 0 mm 4 mps 753 mmHg 90%
    04:00 0°C° 0 mm 4 mps 753 mmHg 89%
    05:00 0°C° 0 mm 4 mps 753 mmHg 89%
    06:00 +1°C° 0 mm 4 mps 753 mmHg 89%
    07:00 +1°C° 0 mm 5 mps 753 mmHg 89%
    08:00 +2°C° 0 mm 5 mps 753 mmHg 84%
    09:00 +3°C° 0 mm 5 mps 753 mmHg 78%
    10:00 +5°C° 0 mm 5 mps 753 mmHg 73%
    11:00 +5°C° 0 mm 5 mps 753 mmHg 69%
    12:00 +5°C° 0 mm 5 mps 753 mmHg 66%
    13:00 +5°C° 0 mm 5 mps 753 mmHg 62%
    14:00 +6°C° 0 mm 5 mps 753 mmHg 62%
    15:00 +6°C° 0 mm 5 mps 753 mmHg 61%
    16:00 +6°C° 0 mm 5 mps 753 mmHg 61%
    17:00 +5°C° 0 mm 4 mps 753 mmHg 68%
    18:00 +4°C° 0 mm 3 mps 753 mmHg 75%
    19:00 +3°C° 0 mm 3 mps 753 mmHg 82%
    20:00 +3°C° 0 mm 3 mps 754 mmHg 85%
    21:00 +2°C° 0 mm 3 mps 754 mmHg 88%
    22:00 +2°C° 0 mm 3 mps 754 mmHg 91%
    23:00 +2°C° 0 mm 3 mps 754 mmHg 93%

    3 April, Friday

    Time Temperature Precipitation Wind Pressure Humidity
    00:00 +1°C° 0 mm 3 mps 754 mmHg 94%
    01:00 +1°C° 0 mm 3 mps 754 mmHg 95%
    02:00 +1°C° 0 mm 3 mps 753 mmHg 95%
    03:00 +1°C° 0 mm 3 mps 753 mmHg 95%
    04:00 +1°C° 0 mm 3 mps 753 mmHg 95%
    05:00 0°C° 0 mm 4 mps 753 mmHg 92%
    06:00 +1°C° 0 mm 4 mps 753 mmHg 90%
    07:00 +2°C° 0 mm 5 mps 753 mmHg 87%
    08:00 +4°C° 0 mm 6 mps 753 mmHg 79%
    09:00 +5°C° 0 mm 7 mps 752 mmHg 70%
    10:00 +8°C° 0 mm 7 mps 752 mmHg 61%
    11:00 +9°C° 0 mm 8 mps 752 mmHg 59%
    12:00 +10°C° 0 mm 8 mps 751 mmHg 56%
    13:00 +10°C° 0 mm 8 mps 751 mmHg 53%
    14:00 +10°C° 0 mm 8 mps 751 mmHg 55%
    15:00 +9°C° 0 mm 7 mps 751 mmHg 57%
    16:00 +9°C° 0 mm 6 mps 750 mmHg 59%
    17:00 +8°C° 0 mm 6 mps 751 mmHg 63%
    18:00 +7°C° 0 mm 5 mps 751 mmHg 67%
    19:00 +6°C° 0 mm 4 mps 751 mmHg 71%
    20:00 +5°C° 0 mm 4 mps 752 mmHg 74%
    21:00 +5°C° 0 mm 5 mps 752 mmHg 77%
    22:00 +3°C° 0 mm 5 mps 753 mmHg 80%
    23:00 +3°C° 0 mm 5 mps 753 mmHg 83%
    Show more